Location: Cheyres
(46.8153°N, 6.7877°E)
Time: 07:34:45
(UTC+00:00)

AO-109 - Pass Details

Date: 08 July 2022
Orbit: 469 x 506 km, 60.7° (Epoch: 14 August)

Event Time Altitude Azimuth Distance (km) Brightness Sun altitude
Exits shadow 01:23:55 36° 176° (S) 779 ? -16.7°
Maximum altitude 01:24:59 48° 128° (SE) 636 ? -16.6°
Drops below altitude 10° 01:28:36 10° 54° (NE) 1,672 ? -16.3°
Sets 01:30:49 0° 48° (NE) 2,564 ? -16.2°
